Campo, CA

10:01 AM PST on December 09, 2019 (GMT -0800)
Campo

Weather History for KCZZ - July, 2019

Change the Weather History Date:

Wednesday, July 17, 2019

  Actual Average Record
Temperature  
Mean Temperature 70 °F 73 °F  
Max Temperature 91 °F 94 °F 107 °F (1960)
Min Temperature 48 °F 53 °F 36 °F (1983)
Degree Days  
Heating Degree Days 0 0  
Month to date heating degree days 6 4  
Since 1 June heating degree days 42 60  
Since 1 July heating degree days 6 4  
Cooling Degree Days 5 9  
Month to date cooling degree days 92 124  
Year to date cooling degree days 169 246  
Since 1 June cooling degree days 167 216  
Growing Degree Days 21 (Base 50)    
Moisture  
Dew Point 43 °F    
Average Humidity 39    
Maximum Humidity 64    
Minimum Humidity 14    
Precipitation  
Precipitation 0.00 in 0.01 in 0.23 in (2006)
Month to date precipitation 0.00 0.11  
Year to date precipitation 12.74 10.26  
Sea Level Pressure  
Sea Level Pressure 29.86 in    
Wind  
Wind Speed 7 mph (South)    
Max Wind Speed 18 mph    
Max Gust Speed 22 mph    
T = Trace of Precipitation, MM = Missing Value Source: NWS Daily Summary

Daily Weather History Graph

Daily Weather History Graph

Search for Another Location

Airport or City:

Astronomy

Jul. 17, 2019 Rise Set
Actual Time 5:50 AM PDT 7:53 PM PDT
Civil Twilight 5:22 AM PDT 8:21 PM PDT
Nautical Twilight 4:48 AM PDT 8:55 PM PDT
Astronomical Twilight 4:12 AM PDT 9:31 PM PDT
Moon 8:46 PM PDT (7/17) 6:26 AM PDT (7/17)
Length of Visible Light 14h 58m
Length of Day
14h 03m
Full, 99% of the Moon is Illuminated
Jul 17
Full
Jul 24
Last Quarter
Jul 31
New
Aug 7
First Quarter
Aug 15
Full

Hourly Weather History & Observations

Time (PDT) Temp. Heat Index Dew Point Humidity Pressure Visibility Wind Dir Wind Speed Gust Speed Precip Events Conditions
12:52 AM 55.0 °F - 41.0 °F 59% 29.82 in - ENE 5.8 mph - N/A   Unknown
1:52 AM 55.9 °F - 41.0 °F 57% 29.81 in - NE 6.9 mph - N/A   Unknown
2:52 AM 54.0 °F - 39.9 °F 59% 29.81 in - NE 5.8 mph - N/A   Unknown
3:52 AM 53.1 °F - 39.0 °F 59% 29.80 in - NE 5.8 mph - N/A   Unknown
4:52 AM 53.1 °F - 39.0 °F 59% 29.83 in - NE 6.9 mph - N/A   Unknown
5:52 AM 52.0 °F - 39.0 °F 61% 29.85 in - NE 8.1 mph - N/A   Unknown
6:52 AM 57.0 °F - 41.0 °F 55% 29.86 in - ENE 4.6 mph - N/A   Unknown
7:52 AM 70.0 °F - 43.0 °F 38% 29.87 in - Calm Calm - N/A   Unknown
8:52 AM 80.1 °F - 37.9 °F 22% 29.87 in - Calm Calm - N/A   Unknown
9:52 AM 86.0 °F - 32.0 °F 14% 29.87 in - SW 4.6 mph - N/A   Unknown
10:52 AM 87.1 °F - 36.0 °F 16% 29.88 in - South 8.1 mph - N/A   Unknown
11:52 AM 89.1 °F - 37.9 °F 16% 29.88 in - WSW 11.5 mph - N/A   Unknown
12:52 PM 89.1 °F - 39.0 °F 17% 29.88 in - SSW 12.7 mph - N/A   Unknown
1:52 PM 90.0 °F - 39.9 °F 17% 29.88 in - SW 13.8 mph - N/A   Unknown
2:52 PM 90.0 °F - 42.1 °F 19% 29.87 in - SW 11.5 mph 19.6 mph N/A   Unknown
3:52 PM 89.1 °F - 46.0 °F 22% 29.87 in - SW 15.0 mph - N/A   Unknown
4:52 PM 87.1 °F - 44.1 °F 22% 29.87 in - SW 13.8 mph - N/A   Unknown
5:52 PM 84.9 °F - 50.0 °F 30% 29.86 in - SW 13.8 mph - N/A   Unknown
6:52 PM 80.1 °F 79.9 °F 53.1 °F 39% 29.87 in - SW 11.5 mph - N/A   Unknown
7:52 PM 75.0 °F - 53.1 °F 46% 29.86 in - SW 8.1 mph - N/A   Unknown
8:52 PM 72.0 °F - 53.1 °F 51% 29.88 in - Calm Calm - N/A   Unknown
9:52 PM 64.0 °F - 48.9 °F 58% 29.90 in - NNE 3.5 mph - N/A   Unknown
10:52 PM 64.0 °F - 48.9 °F 58% 29.91 in - NE 4.6 mph - N/A   Unknown
11:52 PM 61.0 °F - 48.0 °F 62% 29.91 in - NE 4.6 mph - N/A   Unknown